Simultaneous Nadir Overpasses (SNOs) Predictions

Prediction of SNOs between NOAA-20 and NOAA-19 Satellite Orbit:

Table of predicted SNOs for the next 14.0 days since TLE Epoch: 5/28/2022
Index Date (NOAA-20) Time (NOAA-20) Lat,Lon (NOAA-20) SZA (NOAA-20 ) Date (NOAA-19) Time (NOAA-19) Lat,Lon (NOAA-19) SZA (NOAA-19 ) Distance(km) Time Diff (sec)
1 06/05/2022 03:37:28 -76.58, -72.75 125.29 06/05/2022 03:36:20 -76.60, -75.35 125.02 67.17 68
2 06/05/2022 04:28:21 76.91, 93.27 55.12 06/05/2022 04:27:16 76.92, 93.26 55.16 1.75 65
3 06/05/2022 05:19:06 -76.94, -99.53 124.85 06/05/2022 05:18:12 -76.93, -99.42 124.84 2.70 54
4 06/05/2022 06:09:51 76.91, 67.88 55.12 06/05/2022 06:09:16 76.92, 67.75 55.15 3.33 35
5 06/05/2022 07:00:36 -76.94,-124.93 124.85 06/05/2022 07:00:12 -76.93,-124.94 124.85 1.35 24
6 06/05/2022 07:51:22 76.96, 42.30 55.18 06/05/2022 07:51:15 76.96, 42.42 55.16 3.02 7
7 06/05/2022 08:42:06 -76.95,-150.32 124.85 06/05/2022 08:42:11 -76.97,-150.27 124.84 2.67 5
8 06/05/2022 09:32:52 76.97, 16.90 55.18 06/05/2022 09:33:15 76.95, 16.91 55.15 1.59 23
9 06/05/2022 10:23:36 -76.95,-175.72 124.85 06/05/2022 10:24:11 -76.96,-175.78 124.85 1.97 35
10 06/05/2022 11:14:22 76.97, -8.49 55.18 06/05/2022 11:15:14 76.99, -8.42 55.17 2.72 52
11 06/05/2022 12:05:06 -76.96, 158.88 124.85 06/05/2022 12:06:11 -76.96, 158.70 124.86 4.52 65
12 06/05/2022 12:56:00 77.33, -35.36 55.62 06/05/2022 12:57:07 77.28, -32.60 55.32 67.79 67



Historial Predications of SNOs between NOAA-20 and NOAA-19
